This demonstration page uses our WeatherBlox Daily Observations layout. Learn more.

Left ArrowRight Arrow

34.02893, -84.19858

Hourly Observations for August 14, 2020

Temp ( °F °C ) Dew Point ( °F °C ) Humidity (%) Winds ( mph kmh ) Pressure ( in mb ) Visibility ( mi km ) Precip ( " mm )
12:53 am 00:53 Mostly Clear with Light Rain 72 22.2 71 21.7 97 97 Calm 29.96 1015 10 16 0.04 1.02
1:53 am 01:53 Clear 72 22.2 72 22.2 100 100 S 3 6 29.94 1014 8 13 0.01 0.25
2:53 am 02:53 Clear 72 22.2 71 21.7 97 97 Calm 29.93 1014 9 14 0.00 0.00
3:07 am 03:07 Partly Cloudy 72 22.2 72 22.2 100 100 NE 3 6 29.97 1015 9 14 0.00 0.00
3:16 am 03:16 Mostly Cloudy 72 22.2 72 22.2 100 100 Calm 29.97 1015 9 14 0.00 0.00
3:53 am 03:53 Mostly Cloudy 71 21.7 71 21.7 100 100 E 3 6 29.95 1014 10 16 0.00 0.00
4:35 am 04:35 Mostly Cloudy 71 21.7 70 21.1 96 96 Calm 29.97 1015 10 16 0.00 0.00
4:48 am 04:48 Partly Cloudy 72 22 70 21 94 94 Calm 29.96 1014 10 16 0.00 0.00
4:53 am 04:53 Mostly Clear 71 21.7 70 21.1 96 96 Calm 29.93 1014 10 16 0.00 0.00
5:53 am 05:53 Clear 70 21.1 69 20.6 97 97 Calm 29.92 1013 9 14 0.00 0.00
6:53 am 06:53 Clear with Mist and Fog 69 20.6 69 20.6 100 100 Calm 29.92 1013 4 6 0.00 0.00
7:53 am 07:53 Sunny 71 21.7 71 21.7 100 100 Calm 29.94 1014 8 13 0.00 0.00
8:30 am 08:30 Mostly Sunny 73 22.8 71 21.7 94 94 Calm 29.96 1015 10 16 0.00 0.00
8:53 am 08:53 Partly Cloudy 73 22.8 72 22.2 96 96 SSE 3 6 29.96 1015 10 16 0.00 0.00
9:05 am 09:05 Mostly Cloudy 73 22.8 72 22.2 96 96 VRB 3 6 29.97 1015 10 16 0.00 0.00
9:39 am 09:39 Cloudy 74 23.3 71 21.7 91 91 SE 3 6 29.97 1015 10 16 0.00 0.00
9:49 am 09:49 Cloudy 73 23 72 22 94 94 Calm 29.97 1015 10 16 0.00 0.00
9:53 am 09:53 Cloudy 74 23.3 71 21.7 91 91 Calm 29.97 1015 10 16 0.00 0.00
10:26 am 10:26 Cloudy 74 23.3 71 21.7 91 91 E 3 6 29.99 1016 10 16 0.00 0.00
10:53 am 10:53 Cloudy 74 23.3 71 21.7 91 91 Calm 29.98 1015 10 16 0.00 0.00
11:53 am 11:53 Cloudy 78 25.6 72 22.2 82 82 Calm 29.98 1015 10 16 0.00 0.00
12:00 pm 12:00 Cloudy 77 25 72 22.2 85 85 Calm 29.99 1015 10 16 0.00 0.00
12:53 pm 12:53 Cloudy 78 25.6 73 22.8 85 85 VRB 3 6 29.97 1015 10 16 0.00 0.00
1:00 pm 13:00 Cloudy 78 25.6 72 22.2 82 82 S 3 6 29.97 1015 10 16 0.00 0.00
1:53 pm 13:53 Cloudy 79 26.1 73 22.8 82 82 SSE 5 7 29.95 1014 10 16 0.00 0.00
2:14 pm 14:14 Partly Cloudy 80 26.7 73 22.8 79 79 SSE 5 7 29.93 1014 10 16 0.00 0.00
2:53 pm 14:53 Mostly Cloudy 80 26.7 72 22.2 76 76 Calm 29.91 1013 10 16 0.00 0.00
3:12 pm 15:12 Partly Cloudy 83 28.3 74 23.3 74 74 SSW 5 7 29.90 1012 10 16 0.00 0.00
3:53 pm 15:53 Mostly Cloudy 83 28.3 72 22.2 70 70 VRB 3 6 29.89 1012 10 16 0.00 0.00
4:46 pm 16:46 Partly Cloudy with Nearby Thunderstorms 83 28.3 72 22.2 70 70 S 7 11 29.88 1012 10 16 0.00 0.00
4:53 pm 16:53 Partly Cloudy with Nearby Thunderstorms 82 27.8 72 22.2 72 72 SSE 6 9 29.87 1012 10 16 0.00 0.00
5:10 pm 17:10 Mostly Cloudy with Nearby Thunderstorms 77 25 74 23.3 90 90 SSW 24 39 29.90 1012 1 2 0.11 2.79
5:53 pm 17:53 Mostly Sunny 79 26.1 74 23.3 85 85 SSE 6 9 29.86 1011 10 16 0.33 8.38
6:53 pm 18:53 Sunny 78 25.6 75 23.9 90 90 Calm 29.86 1011 10 16 0.00 0.00
7:53 pm 19:53 Mostly Cloudy with Light Rain 77 25 75 23.9 94 94 S 3 6 29.88 1012 5 8 0.02 0.51
8:53 pm 20:53 Cloudy 76 24.4 75 23.9 97 97 Calm 29.88 1012 10 16 0.01 0.25
9:53 pm 21:53 Cloudy 75 23.9 75 23.9 100 100 S 3 6 29.89 1012 10 16 0.00 0.00
10:53 pm 22:53 Mostly Cloudy 74 23.3 73 22.8 97 97 SSE 5 7 29.91 1013 10 16 0.00 0.00
11:14 pm 23:14 Cloudy 74 23.3 73 22.8 97 97 VRB 3 6 29.91 1013 10 16 0.00 0.00
11:53 pm 23:53 Cloudy 73 22.8 73 22.8 100 100 S 6 9 29.90 1013 10 16 0.00 0.00

Powered by AerisWeather